[[{"header":{"parameterUnit":"m.s-1","parameterCategory":1,"la1":30.2991,"la2":30.254,"lo1":-89.0895,"lo2":-89.0444,"dy":0.0017,"dx":0.0017,"nx":28,"ny":28,"refTime":"2025-07-19T09:00:00:Z","depth":0,"parameterNumber":2,"parameterNumberName":"U-component_of_WINDS"},"data":[0,0,0,0,0,0,0,0,0,0,0,0,0,0,0,0,0,0,0,0,0,0,0,0,0,0,0,0,0,0,0,0,0,0,0,0,0,0,0,0,0,0,0,0,0,0,0,0,0,0,0,0,0,0,0,0,0,0,1.0409,1.041,0,1.0536,1.0538,1.0539,1.0551,1.055,1.0549,1.0548,1.0673,1.0678,1.0682,0,0,0,0,0,0,0,0,0,0,0,0,0,1.0175,1.0179,1.0409,1.041,1.0412,1.0536,1.0538,1.0539,1.0552,1.055,1.0548,1.0547,1.0672,1.0677,1.0683,0,0,0,0,0,0,0,0,0,0,0,0,0,1.0286,1.018,1.0408,1.0433,1.0437,1.0536,1.0538,1.054,1.0552,1.055,1.0548,1.0546,1.067,1.0677,1.0684,1.0765,0,0,1.0705,1.0708,0,0,0,0,0,0,0,0,1.028,1.0295,1.0428,1.0432,1.0436,1.0526,1.0501,1.0615,1.0553,1.0508,1.0548,1.0545,1.0626,1.0636,1.0664,1.0771,1.0777,1.0705,1.0709,1.0712,1.0714,0,0,0,0,0,0,0,1.0272,1.029,1.0459,1.043,1.0435,1.0437,1.0451,1.0523,1.0576,1.0512,1.0513,1.0528,1.0627,1.0658,1.0667,1.0779,1.0705,1.0711,1.0715,1.0718,1.0963,1.0965,0,0,0,0,0,0,1.026,1.0283,1.0455,1.0463,1.0352,1.0443,1.0459,1.0499,1.0576,1.0585,1.053,1.0528,1.0647,1.0659,1.0672,1.0775,1.0712,1.0719,1.0723,1.0961,1.0964,1.0966,0,0,0,0,0,0,1.0255,1.0276,1.045,1.0374,1.0396,1.0449,1.0495,1.0502,1.0533,1.0589,1.0598,1.0551,1.0646,1.0662,1.0743,1.078,1.0722,1.0728,1.0958,1.0962,1.0965,1.0981,0,0,0,0,0,0,1.0249,1.0274,1.0305,1.0374,1.04,1.052,1.0497,1.0506,1.0545,1.0544,1.0611,1.0621,1.0645,1.0733,1.075,1.0788,1.0733,1.0955,1.0959,1.0964,1.0978,1.0985,1.0991,0,0,0,0,0,1.024,1.0303,1.0307,1.0328,1.0441,1.0522,1.0536,1.0565,1.0548,1.058,1.0617,1.0618,1.0773,1.0741,1.0761,1.0801,1.0953,1.0958,1.0963,1.0975,1.0983,1.0991,0,0,0,0,0,0,1.0234,1.0312,1.0317,1.0405,1.0457,1.0524,1.0565,1.0573,1.063,1.0626,1.0658,1.0673,1.0754,1.0785,1.0749,1.0886,1.0861,1.087,1.0863,1.0872,1.0878,1.0869,1.0739,0,0,0,0,0,1.0244,1.0304,1.0368,1.0439,1.0465,1.0511,1.0547,1.0565,1.062,1.0641,1.0684,1.0736,1.0797,1.0836,1.0894,1.0982,1.0998,1.102,1.1027,1.1032,1.104,1.1092,1.1103,1.0984,1.0984,1.0984,0,0,1.0263,1.0313,1.0348,1.0439,1.0482,1.0544,1.0529,1.0594,1.064,1.0651,1.0731,1.0765,1.0825,1.0911,1.0951,1.0939,1.1076,1.1039,1.1042,1.1048,1.1098,1.1109,1.1119,1.0987,1.0987,1.0986,0,0,1.0329,1.0373,1.0438,1.0482,1.0548,1.0579,1.0595,1.0662,1.0685,1.0767,1.0777,1.0832,1.0935,1.0979,1.1014,1.1102,1.1106,1.112,1.1155,1.1205,1.1214,1.1223,1.1256,1.1267,1.1127,1.1127,1.1127,0,1.0344,1.0439,1.047,1.0537,1.0577,1.0593,1.066,1.07,1.0781,1.0808,1.0795,1.0928,1.0969,1.1067,1.1089,1.1116,1.1136,1.1112,1.1211,1.122,1.1228,1.126,1.1272,1.1129,1.1129,1.1129,1.1128,0,1.0455,1.052,1.0565,1.0646,1.0692,1.0758,1.08,1.0842,1.0857,1.0889,1.0974,1.1025,1.1095,1.112,1.1133,1.122,1.1212,1.1204,1.118,1.124,1.1271,1.1283,1.1131,1.113,1.113,1.113,0,0,1.0519,1.062,1.0636,1.0675,1.075,1.0801,1.0869,1.0941,1.0978,1.1033,1.1092,1.118,1.1175,1.1216,1.1235,1.1279,1.1348,1.1266,1.1268,1.1281,1.145,1.1456,1.147,1.1351,1.1354,1.1356,1.1446,0,1.0595,1.0718,1.0751,1.0855,1.0917,1.0934,1.0994,1.1047,1.1079,1.1136,1.1172,1.1235,1.1222,1.1248,1.1292,1.133,1.1383,1.1324,1.1406,1.1409,1.1392,1.1485,1.1491,1.1573,1.1457,1.146,1.1461,0,1.07,1.0762,1.0874,1.0945,1.0972,1.1025,1.1096,1.115,1.1211,1.1232,1.1279,1.1295,1.1367,1.1339,1.1439,1.1398,1.1434,1.1458,1.1462,1.1471,1.1439,1.1498,1.16,1.1613,1.148,1.1478,1.1477,0,1.0739,1.0849,1.0931,1.0964,1.1048,1.1086,1.1122,1.1182,1.1224,1.1285,1.1313,1.1381,1.1418,1.147,1.1504,1.148,1.1602,1.1575,1.1621,1.162,1.1646,1.1644,1.1756,1.1667,1.1667,1.1667,1.1666,0,1.0821,1.0889,1.095,1.1001,1.1078,1.1115,1.119,1.1227,1.1281,1.1339,1.1357,1.1411,1.1452,1.1512,1.1538,1.1618,1.1634,1.1653,1.166,1.1653,1.165,1.1676,1.1672,1.167,1.1669,1.1668,1.1668,0,1.0876,1.092,1.1011,1.1086,1.1106,1.116,1.1223,1.1273,1.1308,1.1381,1.14,1.1454,1.1526,1.1566,1.1654,1.1672,1.1762,1.1765,1.1742,1.1745,1.1789,1.1785,1.1923,1.1943,1.184,1.184,1.1841,0,1.0926,1.0979,1.1061,1.1103,1.1141,1.1207,1.1252,1.1291,1.1336,1.1412,1.1453,1.1527,1.1587,1.1701,1.1747,1.1816,1.1821,1.1865,1.1831,1.1823,1.1824,1.1821,1.1827,1.187,1.1871,1.1872,1.1873,0,1.101,1.1031,1.1095,1.1169,1.1223,1.1281,1.134,1.1372,1.1421,1.1472,1.1547,1.1594,1.1688,1.176,1.1834,1.1871,1.188,1.1883,1.1898,1.1891,1.1877,1.1887,1.1759,1.188,1.1879,1.1879,1.1878,1.1878,1.1066,1.1115,1.1182,1.1254,1.1303,1.1359,1.141,1.1453,1.1517,1.1598,1.1617,1.1697,1.1759,1.1859,1.1899,1.1961,1.1953,1.1973,1.1978,1.1983,1.1986,1.1867,1.1974,1.1974,1.1974,1.1974,1.1974,0,1.1153,1.1198,1.1264,1.1347,1.1405,1.1412,1.1478,1.1525,1.1596,1.1654,1.1716,1.1803,1.1875,1.1929,1.2002,1.2042,1.2049,1.206,1.2058,1.2067,1.1988,1.1969,1.2054,1.2054,1.2054,1.2054,1.2054,1.2054,1.1205,1.129,1.1319,1.143,1.1474,1.1554,1.1592,1.1643,1.1691,1.1789,1.185,1.1886,1.1943,1.2022,1.2088,1.2102,1.2129,1.214,1.2154,1.208,1.2072,1.2063,1.2046,1.2145,1.2145,1.2228,1.2229,1.2229]},{"header":{"parameterUnit":"m.s-1","parameterCategory":1,"la1":30.2991,"la2":30.254,"lo1":-89.0895,"lo2":-89.0444,"dy":0.0017,"dx":0.0017,"nx":28,"ny":28,"refTime":"2025-07-19T09:00:00:Z","depth":0,"parameterNumber":3,"parameterNumberName":"V-component_of_WINDS"},"data":[0,0,0,0,0,0,0,0,0,0,0,0,0,0,0,0,0,0,0,0,0,0,0,0,0,0,0,0,0,0,0,0,0,0,0,0,0,0,0,0,0,0,0,0,0,0,0,0,0,0,0,0,0,0,0,0,0,0,1.3974,1.3975,0,1.4086,1.4087,1.4088,1.4149,1.4149,1.4149,1.415,1.4271,1.4274,1.4277,0,0,0,0,0,0,0,0,0,0,0,0,0,1.3822,1.3825,1.3974,1.3976,1.3977,1.4085,1.4087,1.4089,1.4149,1.4149,1.4149,1.415,1.427,1.4274,1.4278,0,0,0,0,0,0,0,0,0,0,0,0,0,1.3907,1.3826,1.3974,1.402,1.4025,1.4085,1.4087,1.4089,1.4149,1.4149,1.4149,1.415,1.4269,1.4274,1.4278,1.4303,0,0,1.4292,1.4294,0,0,0,0,0,0,0,0,1.3902,1.3912,1.4012,1.4017,1.4023,1.4104,1.4078,1.4161,1.4149,1.4102,1.415,1.415,1.4216,1.4225,1.4246,1.4309,1.4314,1.4293,1.4296,1.4298,1.4299,0,0,0,0,0,0,0,1.3896,1.3908,1.4019,1.4013,1.402,1.4038,1.405,1.4094,1.4157,1.4106,1.4111,1.4123,1.4219,1.4241,1.4249,1.4316,1.4293,1.4297,1.43,1.4302,1.4408,1.4408,0,0,0,0,0,0,1.3882,1.3902,1.4015,1.4022,1.3961,1.4041,1.4054,1.4078,1.4156,1.4169,1.4123,1.4125,1.4233,1.4243,1.4253,1.4289,1.4298,1.4302,1.4305,1.4408,1.4408,1.4408,0,0,0,0,0,0,1.3878,1.3891,1.4011,1.3964,1.398,1.4043,1.4069,1.408,1.4102,1.4169,1.4181,1.4133,1.4233,1.4247,1.429,1.4294,1.4304,1.4308,1.4408,1.4408,1.4408,1.4359,0,0,0,0,0,0,1.3873,1.3889,1.3897,1.3963,1.3982,1.4042,1.4069,1.4082,1.4109,1.4113,1.4182,1.4193,1.4235,1.4283,1.4295,1.43,1.4312,1.4407,1.4408,1.4408,1.436,1.4357,1.4354,0,0,0,0,0,1.3868,1.388,1.3897,1.391,1.3993,1.4042,1.4054,1.4099,1.4108,1.4119,1.4162,1.4191,1.4291,1.4287,1.4301,1.4308,1.4407,1.4408,1.4408,1.4361,1.4358,1.4354,0,0,0,0,0,0,1.3815,1.389,1.3909,1.3943,1.3986,1.4053,1.4066,1.4093,1.4136,1.4139,1.4195,1.421,1.4249,1.4283,1.4276,1.4337,1.4353,1.4356,1.4313,1.431,1.4307,1.4298,1.4316,0,0,0,0,0,1.3807,1.3839,1.3903,1.3927,1.3947,1.4003,1.4026,1.4057,1.4105,1.4124,1.417,1.4218,1.426,1.4287,1.433,1.4366,1.4383,1.4378,1.4375,1.4372,1.4374,1.4397,1.4396,1.4408,1.4408,1.4408,0,0,1.3792,1.3836,1.3853,1.3917,1.3954,1.3988,1.4018,1.4052,1.4079,1.413,1.4173,1.4209,1.4266,1.4306,1.4326,1.4336,1.4375,1.4372,1.4369,1.4373,1.4397,1.4396,1.4395,1.4408,1.4408,1.4408,0,0,1.3781,1.3816,1.384,1.3877,1.3931,1.3968,1.3974,1.4038,1.4063,1.4106,1.4146,1.418,1.4252,1.4291,1.432,1.4326,1.4355,1.4339,1.4323,1.4345,1.4344,1.4344,1.4347,1.4347,1.434,1.434,1.434,0,1.3755,1.3804,1.385,1.3882,1.391,1.3956,1.3983,1.4017,1.4083,1.4103,1.4113,1.4204,1.4246,1.4296,1.4297,1.4319,1.433,1.4331,1.434,1.434,1.434,1.4344,1.4345,1.4338,1.4338,1.4338,1.4338,0,1.3771,1.3805,1.3819,1.3879,1.3909,1.3938,1.3991,1.4017,1.4046,1.4083,1.4129,1.418,1.4235,1.4249,1.4279,1.4305,1.4309,1.4329,1.4346,1.4336,1.4341,1.4342,1.4334,1.4335,1.4336,1.4336,0,0,1.3729,1.3815,1.3819,1.3847,1.3912,1.3941,1.3974,1.4025,1.4046,1.4091,1.4122,1.4182,1.42,1.4234,1.4269,1.4288,1.4291,1.4306,1.4308,1.4302,1.4325,1.431,1.431,1.431,1.4311,1.4311,1.432,0,1.3727,1.3784,1.3827,1.3869,1.3903,1.3948,1.3977,1.4021,1.4058,1.4094,1.4136,1.4177,1.4198,1.4219,1.424,1.4285,1.4296,1.4286,1.4342,1.4343,1.4326,1.4313,1.4296,1.4302,1.4322,1.4323,1.4323,0,1.3732,1.3773,1.3818,1.388,1.3896,1.392,1.3972,1.4005,1.4057,1.4083,1.412,1.4156,1.4196,1.4209,1.4266,1.4258,1.4284,1.431,1.4312,1.4319,1.4332,1.432,1.4305,1.4306,1.4326,1.4326,1.4325,0,1.3697,1.3765,1.38,1.3824,1.3896,1.3913,1.3945,1.3997,1.4026,1.4072,1.4092,1.4143,1.4171,1.4211,1.4261,1.4266,1.4314,1.4331,1.4338,1.4337,1.4346,1.4345,1.4335,1.4362,1.4362,1.4362,1.4362,0,1.3691,1.3717,1.3786,1.3807,1.3839,1.389,1.392,1.3957,1.4003,1.4035,1.4079,1.4109,1.4173,1.4212,1.4252,1.4294,1.4307,1.433,1.434,1.4326,1.4323,1.4344,1.4345,1.4362,1.4362,1.4362,1.4362,0,1.3657,1.3704,1.3746,1.3811,1.3829,1.3849,1.3907,1.3932,1.3971,1.4011,1.4024,1.4086,1.4134,1.4188,1.4254,1.4282,1.4322,1.4336,1.4303,1.4309,1.4313,1.4312,1.4317,1.4321,1.4344,1.4344,1.4343,0,1.3649,1.367,1.3737,1.3761,1.379,1.3828,1.3857,1.3909,1.3938,1.4,1.4018,1.4069,1.4112,1.4188,1.4241,1.4293,1.431,1.4308,1.4318,1.4303,1.4311,1.4309,1.4312,1.4305,1.4304,1.4304,1.4304,0,1.3631,1.3654,1.3692,1.3739,1.3772,1.3812,1.3855,1.3872,1.3934,1.3965,1.4013,1.4046,1.4114,1.4165,1.4223,1.426,1.4293,1.43,1.4305,1.429,1.427,1.4282,1.4295,1.43,1.43,1.43,1.4301,1.4301,1.3611,1.3632,1.3682,1.3725,1.3762,1.3801,1.3827,1.3869,1.3909,1.3966,1.3996,1.4044,1.41,1.4181,1.4217,1.4258,1.4269,1.4275,1.4277,1.4278,1.4274,1.4263,1.4269,1.427,1.427,1.427,1.427,0,1.3596,1.3631,1.3669,1.3726,1.3759,1.3785,1.3834,1.3862,1.3902,1.395,1.3991,1.4048,1.4098,1.4156,1.421,1.4232,1.4249,1.4245,1.4244,1.4253,1.4261,1.4252,1.4231,1.4231,1.4231,1.4231,1.4231,1.4231,1.3592,1.3628,1.3657,1.3714,1.3751,1.3796,1.3822,1.3859,1.3897,1.3958,1.3998,1.4035,1.4087,1.4146,1.4195,1.4211,1.4229,1.4221,1.4242,1.4248,1.4252,1.4255,1.4246,1.4224,1.4224,1.423,1.423,1.423]}]]